KPF123 DNCA-LERL

Flight info

Callsign KPF123
Flight time 5h 10m
Altitude 36000
Route OBUDU UA604 ILBIP/N0464F380 UA604 SIHAR/N0456F400 UA604 MOS UA44 TARIK M192 BLN
Aircraft CL60/M-SBDE1E2E3FGHIJ1J4J5J7M3RWXYZ/LB1V1D1

Departure

Time 2026-05-09 03:37
Airport Margaret Ekpo International Airport (DNCA)

Arrival

Time 2026-05-09 08:48
Airport Ciudad Real International Airport (LERL)
Time Latitude Longitude Altitude Speed Heading
2026-05-09 03:06 4.96926 8.34629 221 ft 0 kts 251°
2026-05-09 03:33 4.96934 8.34602 223 ft 6 kts 297°
2026-05-09 03:33 4.96956 8.34560 223 ft 7 kts 297°
2026-05-09 03:34 4.96983 8.34508 223 ft 9 kts 297°
2026-05-09 03:34 4.97007 8.34440 223 ft 11 kts 250°
2026-05-09 03:34 4.96939 8.34394 223 ft 12 kts 208°
2026-05-09 03:34 4.96856 8.34350 223 ft 14 kts 206°
2026-05-09 03:35 4.96756 8.34301 222 ft 17 kts 206°
2026-05-09 03:35 4.96658 8.34265 219 ft 12 kts 180°
2026-05-09 03:35 4.96636 8.34242 218 ft 6 kts
2026-05-09 03:35 4.96646 8.34245 219 ft 0 kts 26°
2026-05-09 03:36 4.96785 8.34314 222 ft 60 kts 27°
2026-05-09 03:37 4.97420 8.34641 220 ft 140 kts 26°
2026-05-09 03:37 4.98464 8.35176 447 ft 180 kts 27°
2026-05-09 03:37 4.99597 8.35749 1138 ft 192 kts 26°
2026-05-09 03:37 5.00771 8.36453 1878 ft 204 kts 39°
2026-05-09 03:38 5.01778 8.37493 2689 ft 211 kts 50°
2026-05-09 03:38 5.02748 8.38565 3619 ft 211 kts 48°
2026-05-09 03:38 5.03789 8.39588 4455 ft 216 kts 42°
2026-05-09 03:38 5.05007 8.40548 5206 ft 232 kts 39°
2026-05-09 03:39 5.06340 8.41553 5964 ft 248 kts 39°
2026-05-09 03:39 5.07747 8.42614 6713 ft 263 kts 39°
2026-05-09 03:39 5.09262 8.43756 7478 ft 276 kts 39°
2026-05-09 03:39 5.10798 8.44912 8225 ft 278 kts 39°
2026-05-09 03:40 5.12338 8.46070 8974 ft 275 kts 39°
2026-05-09 03:40 5.13857 8.47213 9723 ft 273 kts 39°
2026-05-09 03:40 5.15361 8.48344 10463 ft 274 kts 39°
2026-05-09 03:40 5.16923 8.49522 10959 ft 291 kts 39°
2026-05-09 03:41 5.18609 8.50794 11345 ft 311 kts 39°
2026-05-09 03:41 5.20378 8.52128 11707 ft 329 kts 39°
2026-05-09 03:41 5.22265 8.53549 12090 ft 341 kts 39°
2026-05-09 03:41 5.24173 8.54986 12469 ft 347 kts 39°
2026-05-09 03:42 5.26125 8.56454 13031 ft 345 kts 39°
2026-05-09 03:42 5.28020 8.57879 13761 ft 345 kts 39°
2026-05-09 03:42 5.29971 8.59349 14368 ft 351 kts 39°
2026-05-09 03:42 5.31940 8.60833 14868 ft 360 kts 39°
2026-05-09 03:43 5.33957 8.62352 15449 ft 365 kts 39°
2026-05-09 03:43 5.36026 8.63910 16021 ft 370 kts 39°
2026-05-09 03:43 5.38089 8.65464 16598 ft 374 kts 38°
2026-05-09 03:43 5.40188 8.67045 17127 ft 379 kts 38°
2026-05-09 03:44 5.42310 8.68643 17684 ft 382 kts 38°
2026-05-09 03:44 5.44430 8.70240 18234 ft 386 kts 38°
2026-05-09 03:44 5.46581 8.71861 18803 ft 388 kts 38°
2026-05-09 03:44 5.48749 8.73494 19363 ft 390 kts 39°
2026-05-09 03:45 5.50915 8.75127 19878 ft 393 kts 39°
2026-05-09 03:45 5.53104 8.76776 20421 ft 395 kts 39°
2026-05-09 03:45 5.55312 8.78440 20927 ft 397 kts 39°
2026-05-09 03:45 5.57525 8.80109 21450 ft 399 kts 39°
2026-05-09 03:46 5.59756 8.81790 21938 ft 400 kts 39°
2026-05-09 03:46 5.61978 8.83466 22430 ft 402 kts 39°
2026-05-09 03:46 5.64229 8.85164 22863 ft 405 kts 39°
2026-05-09 03:46 5.66480 8.86862 23336 ft 406 kts 39°
2026-05-09 03:47 5.68740 8.88566 23781 ft 408 kts 39°
2026-05-09 03:47 5.71040 8.90302 24245 ft 409 kts 38°
2026-05-09 03:47 5.73327 8.92027 24643 ft 412 kts 38°
2026-05-09 03:47 5.75615 8.93753 25082 ft 413 kts 38°
2026-05-09 03:48 5.77914 8.95488 25451 ft 415 kts 38°
2026-05-09 03:48 5.80243 8.97246 25826 ft 417 kts 38°
2026-05-09 03:48 5.82552 8.98989 26214 ft 418 kts 38°
2026-05-09 03:48 5.84871 9.00739 26581 ft 419 kts 38°
2026-05-09 03:49 5.87209 9.02504 26962 ft 420 kts 38°
2026-05-09 03:49 5.89564 9.04283 27321 ft 421 kts 38°
2026-05-09 03:49 5.91908 9.06053 27605 ft 424 kts 38°
2026-05-09 03:49 5.94268 9.07836 27932 ft 425 kts 38°
2026-05-09 03:50 5.96647 9.09632 28223 ft 427 kts 38°
2026-05-09 03:50 5.99015 9.11421 28513 ft 428 kts 38°
2026-05-09 03:50 6.01406 9.13228 28808 ft 430 kts 38°
2026-05-09 03:50 6.03829 9.15059 29015 ft 433 kts 38°
2026-05-09 03:51 6.06234 9.16876 29202 ft 436 kts 38°
2026-05-09 03:51 6.08655 9.18706 29428 ft 438 kts 38°
2026-05-09 03:51 6.11118 9.20567 29717 ft 438 kts 38°
2026-05-09 03:51 6.13563 9.22397 30010 ft 439 kts 36°
2026-05-09 03:52 6.16231 9.23849 30292 ft 441 kts 23°
2026-05-09 03:52 6.19220 9.24627 30555 ft 444 kts
2026-05-09 03:52 6.22359 9.24667 30826 ft 448 kts 359°
2026-05-09 03:52 6.25458 9.24456 31074 ft 449 kts 359°
2026-05-09 03:53 6.28580 9.24250 31340 ft 449 kts 359°
2026-05-09 03:53 6.31708 9.24043 31630 ft 449 kts 358°
2026-05-09 03:53 6.34830 9.23837 31902 ft 448 kts 358°
2026-05-09 03:53 6.37932 9.23633 32164 ft 448 kts 358°
2026-05-09 03:54 6.41060 9.23427 32421 ft 448 kts 358°
2026-05-09 03:54 6.44194 9.23220 32689 ft 448 kts 358°
2026-05-09 03:54 6.47305 9.23015 32964 ft 448 kts 358°
2026-05-09 03:54 6.50407 9.22810 33259 ft 447 kts 358°
2026-05-09 03:55 6.53554 9.22603 33528 ft 447 kts 358°
2026-05-09 03:55 6.56624 9.22401 33794 ft 446 kts 358°
2026-05-09 03:55 6.59728 9.22196 34091 ft 445 kts 358°
2026-05-09 03:55 6.62821 9.21992 34362 ft 444 kts 358°
2026-05-09 03:56 6.65929 9.21787 34616 ft 444 kts 358°
2026-05-09 03:56 6.69016 9.21584 34856 ft 443 kts 358°
2026-05-09 03:56 6.72105 9.21380 35116 ft 442 kts 358°
2026-05-09 03:56 6.75180 9.21177 35333 ft 442 kts 358°
2026-05-09 03:57 6.78246 9.20975 35564 ft 441 kts 358°
2026-05-09 03:57 6.81304 9.20774 35765 ft 440 kts 358°
2026-05-09 03:57 6.84369 9.20572 35928 ft 441 kts 357°
2026-05-09 03:57 6.87481 9.20367 35921 ft 445 kts 358°
2026-05-09 03:58 6.93705 9.19957 35916 ft 451 kts 358°
2026-05-09 03:58 7.00013 9.19541 35914 ft 454 kts 358°
2026-05-09 03:59 7.06338 9.19123 35911 ft 454 kts 357°
2026-05-09 03:59 7.12656 9.18470 35911 ft 454 kts 353°
2026-05-09 04:00 7.18907 9.17614 35909 ft 453 kts 353°
2026-05-09 04:00 7.25195 9.16755 35905 ft 453 kts 354°
2026-05-09 04:01 7.31436 9.15905 35912 ft 452 kts 354°
2026-05-09 04:01 7.37700 9.15052 35913 ft 452 kts 353°
2026-05-09 04:02 7.43960 9.14200 35915 ft 452 kts 354°
2026-05-09 04:02 7.50175 9.13354 35916 ft 452 kts 354°
2026-05-09 04:03 7.56442 9.12501 35916 ft 451 kts 354°
2026-05-09 04:03 7.62691 9.11651 35917 ft 451 kts 354°
2026-05-09 04:04 7.68908 9.10805 35918 ft 451 kts 353°
2026-05-09 04:04 7.75158 9.09955 35919 ft 451 kts 353°
2026-05-09 04:05 7.81382 9.09107 35913 ft 451 kts 354°
2026-05-09 04:05 7.87626 9.08257 35899 ft 450 kts 353°
2026-05-09 04:06 7.93835 9.07412 35891 ft 450 kts 354°
2026-05-09 04:06 8.00057 9.06564 35887 ft 449 kts 353°
2026-05-09 04:07 8.06276 9.05716 35895 ft 449 kts 353°
2026-05-09 04:07 8.12495 9.04906 35904 ft 449 kts 354°
2026-05-09 04:08 8.18702 9.04163 35904 ft 449 kts 354°
2026-05-09 04:08 8.24964 9.03411 35908 ft 449 kts 354°
2026-05-09 04:09 8.31156 9.02664 35910 ft 448 kts 354°
2026-05-09 04:09 8.37377 9.01905 35926 ft 448 kts 354°
2026-05-09 04:10 8.43573 9.01132 35930 ft 448 kts 353°
2026-05-09 04:10 8.49782 9.00266 35927 ft 449 kts 353°
2026-05-09 04:11 8.55961 8.99404 35931 ft 449 kts 353°
2026-05-09 04:11 8.62191 8.98536 35927 ft 449 kts 353°
2026-05-09 04:12 8.68388 8.97671 35933 ft 448 kts 353°
2026-05-09 04:12 8.74604 8.96805 35939 ft 448 kts 353°
2026-05-09 04:13 8.80782 8.95943 35949 ft 448 kts 353°
2026-05-09 04:13 8.86976 8.95079 35968 ft 448 kts 353°
2026-05-09 04:14 8.93178 8.94214 35987 ft 448 kts 353°
2026-05-09 04:14 8.99386 8.93347 35986 ft 448 kts 353°
2026-05-09 04:15 9.05571 8.92483 36013 ft 448 kts 353°
2026-05-09 04:15 9.11770 8.91618 36042 ft 448 kts 353°
2026-05-09 04:16 9.17977 8.90751 36076 ft 449 kts 353°
2026-05-09 04:16 9.24173 8.89885 36126 ft 448 kts 353°
2026-05-09 04:17 9.30381 8.89017 36120 ft 449 kts 353°
2026-05-09 04:17 9.36603 8.88147 36115 ft 449 kts 353°
2026-05-09 04:18 9.42783 8.87282 36110 ft 449 kts 353°
2026-05-09 04:18 9.48974 8.86416 36106 ft 448 kts 353°
2026-05-09 04:19 9.55196 8.85545 36117 ft 448 kts 353°
2026-05-09 04:19 9.61381 8.84678 36112 ft 448 kts 353°
2026-05-09 04:20 9.67581 8.83882 36112 ft 448 kts 354°
2026-05-09 04:20 9.73787 8.83183 36126 ft 448 kts 354°
2026-05-09 04:21 9.80007 8.82479 36122 ft 448 kts 354°
2026-05-09 04:22 9.89358 8.81420 36113 ft 448 kts 354°
2026-05-09 04:22 9.95580 8.80714 36107 ft 449 kts 354°
2026-05-09 04:23 10.01787 8.80010 36104 ft 450 kts 354°
2026-05-09 04:23 10.08062 8.79297 36092 ft 451 kts 354°
2026-05-09 04:24 10.14300 8.78587 36089 ft 451 kts 354°
2026-05-09 04:24 10.20582 8.77872 36084 ft 451 kts 354°
2026-05-09 04:25 10.26854 8.77158 36067 ft 451 kts 354°
2026-05-09 04:25 10.33081 8.76449 36074 ft 450 kts 354°
2026-05-09 04:26 10.39354 8.75734 36075 ft 450 kts 354°
2026-05-09 04:26 10.45575 8.75025 36076 ft 449 kts 354°
2026-05-09 04:27 10.51801 8.74315 36070 ft 450 kts 354°
2026-05-09 04:27 10.58063 8.73601 36070 ft 449 kts 354°
2026-05-09 04:28 10.64298 8.72889 36069 ft 449 kts 354°
2026-05-09 04:28 10.70502 8.72180 36065 ft 449 kts 354°
2026-05-09 04:29 10.76741 8.71468 36064 ft 449 kts 354°
2026-05-09 04:29 10.82989 8.70754 36044 ft 450 kts 354°
2026-05-09 04:30 10.89241 8.70018 36019 ft 450 kts 352°
2026-05-09 04:30 10.95428 8.68934 36020 ft 449 kts 351°
2026-05-09 04:31 11.01626 8.67827 36017 ft 449 kts 351°
2026-05-09 04:31 11.07811 8.66722 36018 ft 449 kts 351°
2026-05-09 04:32 11.13970 8.65623 36014 ft 450 kts 351°
2026-05-09 04:32 11.20153 8.64519 36012 ft 450 kts 351°
2026-05-09 04:33 11.26375 8.63409 36006 ft 450 kts 351°
2026-05-09 04:33 11.32543 8.62308 35992 ft 450 kts 351°
2026-05-09 04:34 11.38717 8.61206 35984 ft 449 kts 351°
2026-05-09 04:34 11.44901 8.60102 35982 ft 449 kts 351°
2026-05-09 04:35 11.51051 8.59004 35973 ft 450 kts 351°
2026-05-09 04:35 11.57242 8.57898 35973 ft 450 kts 351°
2026-05-09 04:36 11.63447 8.56789 35962 ft 450 kts 351°
2026-05-09 04:36 11.69656 8.55679 35962 ft 449 kts 351°
2026-05-09 04:37 11.75828 8.54575 35950 ft 449 kts 350°
2026-05-09 04:37 11.82028 8.53466 35961 ft 449 kts 350°
2026-05-09 04:38 11.88244 8.52353 35957 ft 450 kts 350°
2026-05-09 04:38 11.94439 8.51244 35958 ft 451 kts 350°
2026-05-09 04:39 12.00701 8.50122 35961 ft 451 kts 350°
2026-05-09 04:39 12.06930 8.49237 35957 ft 450 kts 355°
2026-05-09 04:40 12.13205 8.48631 35955 ft 449 kts 354°
2026-05-09 04:40 12.19457 8.48021 35960 ft 449 kts 354°
2026-05-09 04:41 12.25718 8.47409 35962 ft 449 kts 354°
2026-05-09 04:41 12.31961 8.46796 35953 ft 450 kts 354°
2026-05-09 04:42 12.38219 8.46181 35949 ft 450 kts 354°
2026-05-09 04:42 12.44478 8.45565 35952 ft 449 kts 354°
2026-05-09 04:43 12.50717 8.44950 35949 ft 449 kts 354°
2026-05-09 04:43 12.56945 8.44336 35951 ft 449 kts 354°
2026-05-09 04:44 12.63199 8.43718 35951 ft 449 kts 354°
2026-05-09 04:44 12.69444 8.43101 35948 ft 449 kts 354°
2026-05-09 04:45 12.75658 8.42486 35947 ft 449 kts 354°
2026-05-09 04:45 12.81906 8.41867 35948 ft 449 kts 354°
2026-05-09 04:46 12.88142 8.41248 35948 ft 448 kts 354°
2026-05-09 04:46 12.94401 8.40626 35945 ft 449 kts 354°
2026-05-09 04:47 13.00619 8.40009 35939 ft 449 kts 354°
2026-05-09 04:47 13.06849 8.39389 35939 ft 449 kts 354°
2026-05-09 04:48 13.13162 8.38789 35938 ft 449 kts 354°
2026-05-09 04:48 13.19407 8.38206 35946 ft 449 kts 354°
2026-05-09 04:49 13.25624 8.37626 35956 ft 449 kts 354°
2026-05-09 04:49 13.31867 8.37043 35953 ft 448 kts 354°
2026-05-09 04:50 13.38090 8.36462 35956 ft 448 kts 354°
2026-05-09 04:50 13.44327 8.35879 35954 ft 448 kts 354°
2026-05-09 04:51 13.50546 8.35297 35954 ft 448 kts 354°
2026-05-09 04:51 13.56803 8.34711 35953 ft 447 kts 354°
2026-05-09 04:52 13.63026 8.34128 35953 ft 447 kts 354°
2026-05-09 04:52 13.69248 8.33545 35954 ft 447 kts 354°
2026-05-09 04:53 13.75431 8.32965 35954 ft 446 kts 354°
2026-05-09 04:53 13.81636 8.32382 35951 ft 446 kts 354°
2026-05-09 04:54 13.87866 8.31795 35949 ft 446 kts 353°
2026-05-09 04:54 13.94034 8.31215 35948 ft 446 kts 353°
2026-05-09 04:55 14.00241 8.30630 35944 ft 446 kts 353°
2026-05-09 04:55 14.06439 8.30046 35946 ft 445 kts 353°
2026-05-09 04:56 14.12665 8.29459 35946 ft 445 kts 353°
2026-05-09 04:56 14.18850 8.28876 35949 ft 445 kts 353°
2026-05-09 04:57 14.25041 8.28291 35950 ft 445 kts 353°
2026-05-09 04:57 14.31230 8.27707 35948 ft 445 kts 353°
2026-05-09 04:58 14.44347 8.26467 35947 ft 445 kts 353°
2026-05-09 04:59 14.50567 8.25879 35949 ft 445 kts 353°
2026-05-09 04:59 14.56731 8.25296 35950 ft 445 kts 353°
2026-05-09 05:00 14.62932 8.24709 35948 ft 445 kts 353°
2026-05-09 05:00 14.69105 8.24124 35952 ft 445 kts 353°
2026-05-09 05:01 14.75282 8.23538 35953 ft 445 kts 353°
2026-05-09 05:01 14.81461 8.22952 35963 ft 445 kts 353°
2026-05-09 05:02 14.87676 8.22363 35969 ft 445 kts 353°
2026-05-09 05:02 14.93866 8.21775 35968 ft 445 kts 353°
2026-05-09 05:03 15.00059 8.21187 35970 ft 445 kts 353°
2026-05-09 05:03 15.06229 8.20601 35969 ft 445 kts 353°
2026-05-09 05:04 15.12458 8.20011 35971 ft 445 kts 353°
2026-05-09 05:04 15.18637 8.19425 35971 ft 445 kts 353°
2026-05-09 05:05 15.24853 8.18836 35971 ft 445 kts 353°
2026-05-09 05:05 15.31041 8.18250 35972 ft 445 kts 353°
2026-05-09 05:06 15.37258 8.17660 35973 ft 445 kts 353°
2026-05-09 05:06 15.43413 8.17076 35971 ft 445 kts 353°
2026-05-09 05:07 15.49609 8.16487 35970 ft 445 kts 353°
2026-05-09 05:07 15.55821 8.15897 35970 ft 445 kts 353°
2026-05-09 05:08 15.62045 8.15305 35970 ft 446 kts 353°
2026-05-09 05:08 15.68230 8.14717 35965 ft 446 kts 352°
2026-05-09 05:09 15.74423 8.14127 35962 ft 446 kts 352°
2026-05-09 05:09 15.80639 8.13535 35964 ft 446 kts 352°
2026-05-09 05:10 15.86828 8.12946 35966 ft 446 kts 352°
2026-05-09 05:10 15.93030 8.12354 35967 ft 446 kts 352°
2026-05-09 05:11 15.99239 8.11762 35969 ft 446 kts 352°
2026-05-09 05:11 16.05435 8.11171 35967 ft 446 kts 352°
2026-05-09 05:12 16.11679 8.10574 35972 ft 446 kts 352°
2026-05-09 05:12 16.17895 8.09980 35971 ft 446 kts 352°
2026-05-09 05:13 16.24114 8.09385 35971 ft 446 kts 352°
2026-05-09 05:13 16.30325 8.08791 35967 ft 446 kts 352°
2026-05-09 05:14 16.36495 8.08200 35963 ft 446 kts 352°
2026-05-09 05:14 16.42704 8.07605 35962 ft 446 kts 352°
2026-05-09 05:15 16.48895 8.07011 35964 ft 446 kts 352°
2026-05-09 05:15 16.55137 8.06412 36025 ft 446 kts 352°
2026-05-09 05:15 16.58223 8.06116 36299 ft 443 kts 352°
2026-05-09 05:16 16.61293 8.05822 36656 ft 439 kts 352°
2026-05-09 05:16 16.64325 8.05531 36971 ft 437 kts 351°
2026-05-09 05:16 16.67347 8.05241 37211 ft 435 kts 351°
2026-05-09 05:16 16.70376 8.04949 37396 ft 435 kts 351°
2026-05-09 05:17 16.73407 8.04658 37545 ft 436 kts 351°
2026-05-09 05:17 16.76443 8.04365 37702 ft 436 kts 351°
2026-05-09 05:17 16.79478 8.04073 37847 ft 436 kts 351°
2026-05-09 05:17 16.82484 8.03784 37988 ft 436 kts 351°
2026-05-09 05:18 16.85535 8.03489 37980 ft 439 kts 351°
2026-05-09 05:18 16.91710 8.02893 37992 ft 445 kts 351°
2026-05-09 05:19 16.97848 8.01944 37994 ft 444 kts 341°
2026-05-09 05:19 17.03608 7.99617 37995 ft 443 kts 334°
2026-05-09 05:20 17.09274 7.97100 37999 ft 443 kts 334°
2026-05-09 05:20 17.14964 7.94570 38000 ft 441 kts 334°
2026-05-09 05:21 17.20620 7.92054 38005 ft 440 kts 334°
2026-05-09 05:21 17.26254 7.89545 38004 ft 439 kts 334°
2026-05-09 05:22 17.31863 7.87046 38000 ft 439 kts 334°
2026-05-09 05:22 17.37503 7.84530 37996 ft 439 kts 334°
2026-05-09 05:23 17.43116 7.82025 37995 ft 439 kts 334°
2026-05-09 05:23 17.48752 7.79508 37994 ft 438 kts 334°
2026-05-09 05:24 17.54343 7.77009 37989 ft 437 kts 334°
2026-05-09 05:24 17.59918 7.74515 37992 ft 435 kts 334°
2026-05-09 05:25 17.65518 7.72009 37990 ft 434 kts 334°
2026-05-09 05:25 17.73848 7.68277 37990 ft 434 kts 334°
2026-05-09 05:26 17.79426 7.65775 37982 ft 434 kts 334°
2026-05-09 05:26 17.84960 7.63293 37975 ft 434 kts 334°
2026-05-09 05:27 17.90521 7.60795 37973 ft 433 kts 334°
2026-05-09 05:27 17.96062 7.58306 37972 ft 433 kts 334°
2026-05-09 05:28 18.01605 7.55813 37972 ft 432 kts 334°
2026-05-09 05:28 18.07138 7.53324 37971 ft 431 kts 334°
2026-05-09 05:29 18.12650 7.50842 37972 ft 431 kts 334°
2026-05-09 05:29 18.18175 7.48352 37971 ft 431 kts 333°
2026-05-09 05:30 18.23715 7.45854 37977 ft 431 kts 333°
2026-05-09 05:30 18.29230 7.43365 37980 ft 430 kts 333°
2026-05-09 05:31 18.34722 7.40885 37978 ft 430 kts 333°
2026-05-09 05:31 18.40260 7.38382 37975 ft 430 kts 333°
2026-05-09 05:32 18.45755 7.35897 37983 ft 429 kts 333°
2026-05-09 05:32 18.51256 7.33408 37988 ft 430 kts 333°
2026-05-09 05:33 18.56742 7.30923 37989 ft 429 kts 333°
2026-05-09 05:33 18.62257 7.28424 37987 ft 429 kts 333°
2026-05-09 05:34 18.67757 7.25930 37986 ft 428 kts 333°
2026-05-09 05:34 18.73247 7.23438 37987 ft 428 kts 333°
2026-05-09 05:35 18.78694 7.20965 37982 ft 428 kts 333°
2026-05-09 05:35 18.84185 7.18469 37982 ft 427 kts 333°
2026-05-09 05:36 18.89670 7.15975 37977 ft 427 kts 333°
2026-05-09 05:36 18.95137 7.13486 37979 ft 427 kts 332°
2026-05-09 05:37 19.00596 7.10999 37972 ft 427 kts 333°
2026-05-09 05:37 19.06026 7.08524 37977 ft 426 kts 333°
2026-05-09 05:38 19.11491 7.06031 37969 ft 426 kts 332°
2026-05-09 05:38 19.16961 7.03534 37958 ft 425 kts 332°
2026-05-09 05:39 19.22386 7.01056 37962 ft 425 kts 332°
2026-05-09 05:39 19.27814 6.98574 37966 ft 425 kts 332°
2026-05-09 05:40 19.33234 6.96094 37966 ft 425 kts 332°
2026-05-09 05:40 19.38719 6.93582 37964 ft 425 kts 332°
2026-05-09 05:41 19.44123 6.91106 37966 ft 424 kts 332°
2026-05-09 05:41 19.49562 6.88612 37967 ft 424 kts 332°
2026-05-09 05:42 19.55006 6.86114 37969 ft 424 kts 332°
2026-05-09 05:42 19.60406 6.83634 37971 ft 424 kts 332°
2026-05-09 05:43 19.65829 6.81142 37977 ft 424 kts 332°
2026-05-09 05:43 19.71223 6.78661 37977 ft 423 kts 332°
2026-05-09 05:44 19.76620 6.76177 37980 ft 423 kts 332°
2026-05-09 05:44 19.82022 6.73689 37979 ft 422 kts 332°
2026-05-09 05:45 19.87409 6.71206 37986 ft 422 kts 332°
2026-05-09 05:45 19.92811 6.68714 37991 ft 422 kts 332°
2026-05-09 05:46 19.98197 6.66228 37995 ft 422 kts 332°
2026-05-09 05:46 20.03594 6.63734 37996 ft 422 kts 332°
2026-05-09 05:47 20.08997 6.61236 37997 ft 421 kts 332°
2026-05-09 05:47 20.14418 6.58836 37997 ft 423 kts 333°
2026-05-09 05:48 20.19893 6.56534 37997 ft 422 kts 333°
2026-05-09 05:48 20.25366 6.54230 38001 ft 422 kts 333°
2026-05-09 05:49 20.30824 6.51931 38003 ft 422 kts 333°
2026-05-09 05:49 20.36303 6.49620 38009 ft 422 kts 333°
2026-05-09 05:50 20.41765 6.47316 38012 ft 421 kts 333°
2026-05-09 05:50 20.47220 6.45011 38016 ft 421 kts 332°
2026-05-09 05:51 20.52661 6.42711 38016 ft 421 kts 333°
2026-05-09 05:51 20.58137 6.40393 38014 ft 422 kts 332°
2026-05-09 05:52 20.63578 6.38090 38014 ft 422 kts 332°
2026-05-09 05:52 20.69046 6.35773 38013 ft 422 kts 332°
2026-05-09 05:53 20.74537 6.33444 38018 ft 422 kts 332°
2026-05-09 05:53 20.79995 6.31127 38017 ft 422 kts 332°
2026-05-09 05:54 20.85467 6.28802 38015 ft 422 kts 332°
2026-05-09 05:54 20.90912 6.26488 38013 ft 422 kts 331°
2026-05-09 05:55 20.96374 6.24164 38013 ft 422 kts 332°
2026-05-09 05:55 21.01863 6.21827 38014 ft 421 kts 331°
2026-05-09 05:56 21.07292 6.19514 38015 ft 421 kts 332°
2026-05-09 05:56 21.12781 6.17173 38012 ft 421 kts 331°
2026-05-09 05:57 21.18256 6.14835 38022 ft 423 kts 331°
2026-05-09 05:57 21.23735 6.12495 38022 ft 424 kts 332°
2026-05-09 05:58 21.29183 6.10166 38023 ft 424 kts 331°
2026-05-09 05:58 21.34675 6.07817 38027 ft 424 kts 331°
2026-05-09 05:59 21.40176 6.05462 38047 ft 424 kts 331°
2026-05-09 05:59 21.45655 6.03114 38057 ft 424 kts 331°
2026-05-09 06:00 21.51129 6.00767 38059 ft 424 kts 331°
2026-05-09 06:00 21.56625 5.98408 38065 ft 425 kts 331°
2026-05-09 06:01 21.62111 5.96052 38065 ft 425 kts 331°
2026-05-09 06:01 21.67631 5.93680 38073 ft 424 kts 331°
2026-05-09 06:02 21.73097 5.91328 38080 ft 424 kts 331°
2026-05-09 06:02 21.78603 5.88957 38088 ft 425 kts 330°
2026-05-09 06:03 21.84119 5.86580 38112 ft 426 kts 330°
2026-05-09 06:03 21.89621 5.84207 38125 ft 427 kts 330°
2026-05-09 06:04 21.95124 5.81833 38145 ft 426 kts 330°
2026-05-09 06:04 22.00652 5.79445 38152 ft 427 kts 330°
2026-05-09 06:05 22.06176 5.77057 38161 ft 427 kts 330°
2026-05-09 06:05 22.11709 5.74663 38170 ft 428 kts 330°
2026-05-09 06:06 22.17259 5.72260 38176 ft 427 kts 330°
2026-05-09 06:06 22.22758 5.69878 38189 ft 426 kts 330°
2026-05-09 06:07 22.28268 5.67488 38186 ft 426 kts 330°
2026-05-09 06:07 22.33761 5.65104 38188 ft 425 kts 330°
2026-05-09 06:08 22.39265 5.62713 38208 ft 424 kts 330°
2026-05-09 06:08 22.44734 5.60336 38214 ft 423 kts 330°
2026-05-09 06:09 22.50228 5.57946 38232 ft 422 kts 330°
2026-05-09 06:09 22.55660 5.55579 38229 ft 422 kts 330°
2026-05-09 06:10 22.61159 5.53182 38236 ft 423 kts 330°
2026-05-09 06:10 22.66608 5.50805 38223 ft 423 kts 330°
2026-05-09 06:11 22.72090 5.48412 38207 ft 422 kts 331°
2026-05-09 06:11 22.77545 5.46028 38208 ft 421 kts 330°
2026-05-09 06:12 22.83108 5.43813 38211 ft 426 kts 335°
2026-05-09 06:12 22.88800 5.41984 38227 ft 426 kts 335°
2026-05-09 06:13 22.94466 5.40156 38241 ft 426 kts 335°
2026-05-09 06:13 23.00163 5.38314 38264 ft 425 kts 335°
2026-05-09 06:14 23.05860 5.36469 38302 ft 425 kts 335°
2026-05-09 06:14 23.11519 5.34633 38324 ft 424 kts 334°
2026-05-09 06:15 23.17242 5.32773 38324 ft 424 kts 335°
2026-05-09 06:15 23.22899 5.30933 38319 ft 423 kts 334°
2026-05-09 06:16 23.28525 5.29101 38300 ft 423 kts 335°
2026-05-09 06:16 23.34172 5.27259 38268 ft 424 kts 335°
2026-05-09 06:17 23.39866 5.25401 38236 ft 423 kts 335°
2026-05-09 06:17 23.45482 5.23567 38233 ft 423 kts 335°
2026-05-09 06:18 23.51157 5.21711 38228 ft 424 kts 335°
2026-05-09 06:18 23.56791 5.19867 38222 ft 424 kts 335°
2026-05-09 06:19 23.62454 5.18012 38217 ft 423 kts 335°
2026-05-09 06:19 23.68097 5.16163 38213 ft 422 kts 334°
2026-05-09 06:20 23.73743 5.14309 38210 ft 423 kts 334°
2026-05-09 06:20 23.79402 5.12450 38206 ft 424 kts 335°
2026-05-09 06:21 23.85055 5.10592 38201 ft 423 kts 335°
2026-05-09 06:21 23.90692 5.08737 38208 ft 423 kts 335°
2026-05-09 06:22 23.96333 5.06879 38210 ft 423 kts 335°
2026-05-09 06:22 24.01997 5.05012 38208 ft 422 kts 335°
2026-05-09 06:23 24.07594 5.03165 38218 ft 421 kts 335°
2026-05-09 06:23 24.13229 5.01304 38215 ft 422 kts 335°
2026-05-09 06:24 24.18893 4.99430 38204 ft 424 kts 335°
2026-05-09 06:24 24.24541 4.97561 38202 ft 425 kts 336°
2026-05-09 06:25 24.30226 4.95678 38207 ft 426 kts 336°
2026-05-09 06:25 24.35910 4.93793 38217 ft 427 kts 336°
2026-05-09 06:26 24.41602 4.91904 38217 ft 428 kts 336°
2026-05-09 06:26 24.47314 4.90007 38218 ft 430 kts 336°
2026-05-09 06:27 24.53083 4.88089 38206 ft 431 kts 336°
2026-05-09 06:27 24.58822 4.86179 38194 ft 432 kts 336°
2026-05-09 06:28 24.64576 4.84263 38180 ft 432 kts 337°
2026-05-09 06:28 24.70390 4.82325 38168 ft 433 kts 337°
2026-05-09 06:29 24.76165 4.80397 38166 ft 433 kts 337°
2026-05-09 06:29 24.81914 4.78477 38162 ft 434 kts 337°
2026-05-09 06:30 24.87736 4.76530 38157 ft 435 kts 337°
2026-05-09 06:30 24.93526 4.74592 38161 ft 436 kts 338°
2026-05-09 06:31 24.99328 4.72648 38152 ft 436 kts 338°
2026-05-09 06:31 25.05183 4.70684 38155 ft 436 kts 338°
2026-05-09 06:32 25.11019 4.68725 38155 ft 436 kts 338°
2026-05-09 06:33 25.19735 4.65795 38161 ft 438 kts 338°
2026-05-09 06:33 25.25576 4.63829 38162 ft 438 kts 338°
2026-05-09 06:34 25.34345 4.60874 38196 ft 437 kts 338°
2026-05-09 06:34 25.40194 4.58901 38220 ft 438 kts 338°
2026-05-09 06:35 25.46009 4.56936 38229 ft 437 kts 338°
2026-05-09 06:35 25.51857 4.54959 38249 ft 437 kts 338°
2026-05-09 06:36 25.57695 4.52984 38242 ft 437 kts 338°
2026-05-09 06:36 25.63515 4.51012 38229 ft 436 kts 338°
2026-05-09 06:37 25.69342 4.49035 38216 ft 437 kts 338°
2026-05-09 06:37 25.75145 4.47065 38194 ft 437 kts 338°
2026-05-09 06:38 25.80995 4.45076 38175 ft 437 kts 338°
2026-05-09 06:38 25.86806 4.43099 38162 ft 436 kts 338°
2026-05-09 06:39 25.92592 4.41129 38141 ft 436 kts 338°
2026-05-09 06:39 25.98440 4.39135 38118 ft 437 kts 338°
2026-05-09 06:40 26.04264 4.37146 38099 ft 437 kts 338°
2026-05-09 06:40 26.10100 4.35152 38097 ft 438 kts 338°
2026-05-09 06:41 26.15967 4.33146 38079 ft 438 kts 337°
2026-05-09 06:41 26.21812 4.31144 38047 ft 438 kts 337°
2026-05-09 06:42 26.27666 4.29138 38024 ft 437 kts 337°
2026-05-09 06:42 26.33491 4.27139 38033 ft 436 kts 337°
2026-05-09 06:43 26.39300 4.25143 38028 ft 436 kts 336°
2026-05-09 06:43 26.45097 4.23149 38036 ft 436 kts 337°
2026-05-09 06:44 26.50920 4.21144 38013 ft 437 kts 336°
2026-05-09 06:44 26.56751 4.19135 38019 ft 436 kts 336°
2026-05-09 06:45 26.62567 4.17128 38029 ft 436 kts 336°
2026-05-09 06:45 26.68358 4.15127 38039 ft 437 kts 336°
2026-05-09 06:46 26.74175 4.13116 38037 ft 436 kts 336°
2026-05-09 06:46 26.79995 4.11102 38029 ft 436 kts 336°
2026-05-09 06:47 26.85815 4.09085 38026 ft 436 kts 336°
2026-05-09 06:47 26.91615 4.07073 38024 ft 436 kts 336°
2026-05-09 06:48 26.97393 4.05066 38022 ft 437 kts 336°
2026-05-09 06:48 27.03238 4.03033 38020 ft 437 kts 336°
2026-05-09 06:49 27.09065 4.01005 38018 ft 437 kts 336°
2026-05-09 06:49 27.14888 3.98976 38016 ft 436 kts 336°
2026-05-09 06:50 27.20684 3.96954 38012 ft 435 kts 336°
2026-05-09 06:50 27.26482 3.94930 38013 ft 435 kts 336°
2026-05-09 06:51 27.32290 3.92899 38013 ft 435 kts 335°
2026-05-09 06:51 27.38091 3.90868 38017 ft 435 kts 335°
2026-05-09 06:52 27.43862 3.88845 38024 ft 436 kts 336°
2026-05-09 06:52 27.49689 3.86801 38025 ft 435 kts 335°
2026-05-09 06:53 27.55470 3.84771 38026 ft 435 kts 335°
2026-05-09 06:53 27.61272 3.82731 38036 ft 435 kts 336°
2026-05-09 06:54 27.67080 3.80687 38041 ft 435 kts 335°
2026-05-09 06:54 27.72851 3.78653 38048 ft 436 kts 335°
2026-05-09 06:55 27.78640 3.76610 38058 ft 436 kts 335°
2026-05-09 06:55 27.84433 3.74564 38059 ft 436 kts 335°
2026-05-09 06:56 27.90241 3.72510 38069 ft 436 kts 335°
2026-05-09 06:56 27.96076 3.70445 38069 ft 436 kts 335°
2026-05-09 06:57 28.01857 3.68396 38063 ft 435 kts 335°
2026-05-09 06:57 28.07629 3.66348 38064 ft 436 kts 335°
2026-05-09 06:58 28.13447 3.64281 38049 ft 436 kts 335°
2026-05-09 06:58 28.19249 3.62217 38051 ft 436 kts 335°
2026-05-09 06:59 28.25050 3.60152 38043 ft 436 kts 335°
2026-05-09 06:59 28.30848 3.58085 38044 ft 436 kts 335°
2026-05-09 07:00 28.36603 3.56032 38043 ft 435 kts 335°
2026-05-09 07:00 28.42413 3.53956 38040 ft 435 kts 335°
2026-05-09 07:01 28.48206 3.51884 38029 ft 435 kts 334°
2026-05-09 07:01 28.54051 3.49976 38020 ft 437 kts 337°
2026-05-09 07:02 28.59915 3.48161 38025 ft 437 kts 337°
2026-05-09 07:02 28.65815 3.46331 38015 ft 437 kts 336°
2026-05-09 07:03 28.71667 3.44513 38011 ft 438 kts 337°
2026-05-09 07:03 28.77577 3.42674 38008 ft 438 kts 337°
2026-05-09 07:04 28.83469 3.40840 37999 ft 438 kts 336°
2026-05-09 07:04 28.89370 3.39000 38002 ft 438 kts 336°
2026-05-09 07:05 28.95277 3.37155 38000 ft 438 kts 336°
2026-05-09 07:05 29.01139 3.35323 38004 ft 439 kts 336°
2026-05-09 07:06 29.07074 3.33465 38002 ft 440 kts 336°
2026-05-09 07:06 29.13016 3.31603 37990 ft 439 kts 336°
2026-05-09 07:07 29.18932 3.29748 37993 ft 439 kts 336°
2026-05-09 07:07 29.24823 3.27897 37977 ft 439 kts 336°
2026-05-09 07:08 29.30721 3.26042 37975 ft 439 kts 336°
2026-05-09 07:08 29.36597 3.24192 37966 ft 439 kts 335°
2026-05-09 07:09 29.42515 3.22326 37968 ft 440 kts 335°
2026-05-09 07:09 29.48436 3.20457 37962 ft 440 kts 335°
2026-05-09 07:10 29.54314 3.18600 37957 ft 440 kts 335°
2026-05-09 07:10 29.60248 3.16722 37957 ft 440 kts 335°
2026-05-09 07:11 29.66151 3.14852 37958 ft 440 kts 335°
2026-05-09 07:11 29.72090 3.12968 37957 ft 441 kts 335°
2026-05-09 07:12 29.77993 3.11093 37958 ft 441 kts 335°
2026-05-09 07:12 29.83948 3.09200 37955 ft 442 kts 335°
2026-05-09 07:13 29.89889 3.07309 37947 ft 442 kts 335°
2026-05-09 07:13 29.95814 3.05420 37944 ft 442 kts 335°
2026-05-09 07:14 30.01793 3.03512 37941 ft 443 kts 335°
2026-05-09 07:14 30.07723 3.01617 37946 ft 443 kts 335°
2026-05-09 07:15 30.13699 2.99704 37949 ft 444 kts 335°
2026-05-09 07:15 30.19667 2.97792 37952 ft 445 kts 335°
2026-05-09 07:16 30.25662 2.95870 37953 ft 445 kts 335°
2026-05-09 07:16 30.31673 2.93940 37948 ft 445 kts 335°
2026-05-09 07:17 30.37677 2.92009 37937 ft 446 kts 335°
2026-05-09 07:17 30.43673 2.90078 37921 ft 447 kts 335°
2026-05-09 07:18 30.49676 2.88143 37911 ft 447 kts 335°
2026-05-09 07:18 30.55658 2.86140 37895 ft 443 kts 330°
2026-05-09 07:19 30.61228 2.83193 37912 ft 435 kts 325°
2026-05-09 07:19 30.66726 2.80135 37909 ft 437 kts 325°
2026-05-09 07:20 30.72216 2.77080 37934 ft 437 kts 325°
2026-05-09 07:20 30.77710 2.74021 37936 ft 438 kts 325°
2026-05-09 07:21 30.83230 2.70944 37946 ft 438 kts 325°
2026-05-09 07:21 30.88737 2.67871 37958 ft 438 kts 325°
2026-05-09 07:22 30.94222 2.64807 37964 ft 439 kts 325°
2026-05-09 07:22 30.99734 2.61724 37968 ft 439 kts 324°
2026-05-09 07:23 31.05299 2.58608 37973 ft 440 kts 325°
2026-05-09 07:23 31.10812 2.55517 38293 ft 438 kts 324°
2026-05-09 07:24 31.13567 2.53975 38760 ft 432 kts 324°
2026-05-09 07:24 31.16279 2.52456 39147 ft 428 kts 324°
2026-05-09 07:24 31.18949 2.50958 39517 ft 424 kts 324°
2026-05-09 07:24 31.21614 2.49460 39768 ft 423 kts 324°
2026-05-09 07:25 31.24266 2.47970 39948 ft 423 kts 324°
2026-05-09 07:25 31.26939 2.46483 39990 ft 425 kts 324°
2026-05-09 07:25 31.32345 2.43482 39984 ft 431 kts 324°
2026-05-09 07:26 31.37818 2.40441 39970 ft 435 kts 324°
2026-05-09 07:26 31.43302 2.37392 39967 ft 438 kts 324°
2026-05-09 07:27 31.48859 2.34300 39963 ft 439 kts 324°
2026-05-09 07:27 31.54353 2.31239 39962 ft 439 kts 324°
2026-05-09 07:28 31.59896 2.28148 39955 ft 438 kts 324°
2026-05-09 07:28 31.65384 2.25083 39952 ft 437 kts 324°
2026-05-09 07:29 31.70887 2.22005 39948 ft 437 kts 323°
2026-05-09 07:29 31.76412 2.18910 39947 ft 437 kts 323°
2026-05-09 07:30 31.81896 2.15833 39953 ft 438 kts 323°
2026-05-09 07:30 31.87417 2.12732 39956 ft 438 kts 323°
2026-05-09 07:31 31.92909 2.09644 39960 ft 438 kts 323°
2026-05-09 07:31 31.98421 2.06541 39960 ft 438 kts 323°
2026-05-09 07:32 32.03951 2.03423 39964 ft 438 kts 323°
2026-05-09 07:32 32.09462 2.00312 39967 ft 437 kts 323°
2026-05-09 07:33 32.17770 1.95612 39969 ft 438 kts 323°
2026-05-09 07:34 32.23256 1.92504 39964 ft 439 kts 323°
2026-05-09 07:34 32.28824 1.89345 39967 ft 440 kts 323°
2026-05-09 07:35 32.34342 1.86210 39967 ft 440 kts 323°
2026-05-09 07:35 32.39877 1.83062 39961 ft 441 kts 323°
2026-05-09 07:36 32.45401 1.79916 39970 ft 440 kts 322°
2026-05-09 07:36 32.50947 1.76753 39961 ft 441 kts 322°
2026-05-09 07:37 32.56486 1.73590 39961 ft 441 kts 322°
2026-05-09 07:37 32.62014 1.70429 39964 ft 440 kts 322°
2026-05-09 07:38 32.67542 1.67263 39970 ft 441 kts 322°
2026-05-09 07:38 32.73051 1.64104 39982 ft 441 kts 322°
2026-05-09 07:39 32.78606 1.60913 39976 ft 441 kts 322°
2026-05-09 07:39 32.84123 1.57741 39979 ft 441 kts 322°
2026-05-09 07:40 32.89661 1.54552 39978 ft 441 kts 322°
2026-05-09 07:40 32.95197 1.51360 39980 ft 441 kts 322°
2026-05-09 07:41 33.00776 1.48164 39988 ft 442 kts 323°
2026-05-09 07:41 33.06337 1.45002 39999 ft 443 kts 322°
2026-05-09 07:42 33.11947 1.41808 40004 ft 444 kts 322°
2026-05-09 07:42 33.17531 1.38625 40007 ft 444 kts 322°
2026-05-09 07:43 33.23112 1.35438 40010 ft 444 kts 322°
2026-05-09 07:43 33.28722 1.32230 40013 ft 444 kts 322°
2026-05-09 07:44 33.34317 1.29027 40021 ft 444 kts 322°
2026-05-09 07:44 33.39887 1.25833 40018 ft 444 kts 322°
2026-05-09 07:45 33.45440 1.22643 40024 ft 444 kts 322°
2026-05-09 07:45 33.51034 1.19425 40022 ft 444 kts 322°
2026-05-09 07:46 33.56632 1.16201 40005 ft 445 kts 322°
2026-05-09 07:46 33.62206 1.12985 39968 ft 446 kts 322°
2026-05-09 07:47 33.67810 1.09747 39924 ft 447 kts 322°
2026-05-09 07:47 33.73597 1.06777 39904 ft 458 kts 328°
2026-05-09 07:48 33.79642 1.04249 39950 ft 458 kts 328°
2026-05-09 07:48 33.85644 1.01726 39962 ft 458 kts 328°
2026-05-09 07:49 33.91698 0.99176 39971 ft 460 kts 328°
2026-05-09 07:49 33.97738 0.96628 39956 ft 461 kts 328°
2026-05-09 07:50 34.03807 0.94063 39976 ft 461 kts 328°
2026-05-09 07:50 34.09885 0.91490 39973 ft 461 kts 328°
2026-05-09 07:51 34.16014 0.88890 39976 ft 461 kts 328°
2026-05-09 07:51 34.22088 0.86310 39963 ft 462 kts 328°
2026-05-09 07:52 34.28161 0.83725 39963 ft 463 kts 328°
2026-05-09 07:52 34.34215 0.81143 39958 ft 464 kts 328°
2026-05-09 07:53 34.39336 0.78956 39958 ft 465 kts 328°
2026-05-09 07:53 34.46486 0.75898 39959 ft 467 kts 328°
2026-05-09 07:54 34.52613 0.73274 39947 ft 468 kts 329°
2026-05-09 07:54 34.58778 0.70630 39939 ft 468 kts 329°
2026-05-09 07:55 34.63868 0.68443 39949 ft 468 kts 329°
2026-05-09 07:55 34.71048 0.65355 39947 ft 467 kts 329°
2026-05-09 07:56 34.77196 0.62704 39945 ft 467 kts 329°
2026-05-09 07:56 34.83326 0.60057 39936 ft 468 kts 329°
2026-05-09 07:57 34.89462 0.57404 39936 ft 468 kts 329°
2026-05-09 07:57 34.95626 0.54734 39921 ft 468 kts 329°
2026-05-09 07:58 35.01772 0.52067 39927 ft 468 kts 329°
2026-05-09 07:58 35.07923 0.49393 39920 ft 470 kts 329°
2026-05-09 07:59 35.14085 0.46709 39899 ft 472 kts 329°
2026-05-09 07:59 35.19259 0.44455 39901 ft 472 kts 329°
2026-05-09 08:00 35.26489 0.41298 39899 ft 472 kts 330°
2026-05-09 08:00 35.32690 0.38586 39889 ft 472 kts 330°
2026-05-09 08:01 35.38864 0.35881 39875 ft 473 kts 330°
2026-05-09 08:01 35.45132 0.33130 39892 ft 475 kts 329°
2026-05-09 08:02 35.51345 0.30402 39901 ft 475 kts 330°
2026-05-09 08:02 35.57592 0.27698 39873 ft 475 kts 330°
2026-05-09 08:03 35.63812 0.25001 39857 ft 476 kts 330°
2026-05-09 08:03 35.70090 0.22275 39839 ft 476 kts 330°
2026-05-09 08:04 35.76319 0.19565 39841 ft 477 kts 330°
2026-05-09 08:04 35.81494 0.17173 39840 ft 470 kts 325°
2026-05-09 08:04 35.85266 0.14618 39840 ft 457 kts 315°
2026-05-09 08:05 35.86971 0.13116 39833 ft 451 kts 311°
2026-05-09 08:05 35.90024 0.09705 39820 ft 438 kts 303°
2026-05-09 08:05 35.91356 0.07833 39832 ft 432 kts 298°
2026-05-09 08:06 35.94964 0.00675 39829 ft 417 kts 286°
2026-05-09 08:06 35.97485 -0.05759 39830 ft 418 kts 286°
2026-05-09 08:07 36.00009 -0.12205 39829 ft 418 kts 287°
2026-05-09 08:07 36.02524 -0.18643 39843 ft 418 kts 287°
2026-05-09 08:08 36.05096 -0.25094 39847 ft 418 kts 288°
2026-05-09 08:08 36.07261 -0.30438 39863 ft 418 kts 287°
2026-05-09 08:09 36.09849 -0.36845 39859 ft 419 kts 287°
2026-05-09 08:09 36.12872 -0.44345 39850 ft 420 kts 287°
2026-05-09 08:10 36.15486 -0.50847 39857 ft 422 kts 288°
2026-05-09 08:10 36.17651 -0.56240 39859 ft 422 kts 288°
2026-05-09 08:11 36.20256 -0.62743 39854 ft 423 kts 288°
2026-05-09 08:11 36.22865 -0.69268 39873 ft 423 kts 287°
2026-05-09 08:12 36.27198 -0.80135 39879 ft 423 kts 287°
2026-05-09 08:12 36.29791 -0.86660 39881 ft 424 kts 287°
2026-05-09 08:13 36.32384 -0.93197 39896 ft 424 kts 287°
2026-05-09 08:13 36.34986 -0.99766 39898 ft 424 kts 287°
2026-05-09 08:14 36.37573 -1.06315 39902 ft 425 kts 288°
2026-05-09 08:14 36.39742 -1.11815 39904 ft 427 kts 288°
2026-05-09 08:15 36.42329 -1.18444 39916 ft 427 kts 288°
2026-05-09 08:15 36.45315 -1.26151 39914 ft 427 kts 287°
2026-05-09 08:16 36.47456 -1.31687 39907 ft 427 kts 288°
2026-05-09 08:16 36.50449 -1.39444 39905 ft 427 kts 287°
2026-05-09 08:17 36.52580 -1.44978 39903 ft 428 kts 288°
2026-05-09 08:17 36.55580 -1.52788 39896 ft 429 kts 288°
2026-05-09 08:18 36.58127 -1.59427 39901 ft 428 kts 288°
2026-05-09 08:18 36.60690 -1.66126 39907 ft 429 kts 288°
2026-05-09 08:19 36.62836 -1.71747 39917 ft 430 kts 288°
2026-05-09 08:19 36.65401 -1.78476 39912 ft 430 kts 288°
2026-05-09 08:20 36.67955 -1.85192 39925 ft 429 kts 288°
2026-05-09 08:20 36.70515 -1.91939 39916 ft 429 kts 288°
2026-05-09 08:21 36.73056 -1.98652 39926 ft 430 kts 288°
2026-05-09 08:22 36.78334 -2.12643 39934 ft 431 kts 288°
2026-05-09 08:22 36.80894 -2.19439 39937 ft 432 kts 289°
2026-05-09 08:23 36.84117 -2.25852 39938 ft 445 kts 301°
2026-05-09 08:23 36.88623 -2.31304 39940 ft 458 kts 313°
2026-05-09 08:24 36.93572 -2.36288 39943 ft 458 kts 313°
2026-05-09 08:24 36.98533 -2.41302 39943 ft 457 kts 313°
2026-05-09 08:25 37.03480 -2.46312 39948 ft 458 kts 313°
2026-05-09 08:25 37.08438 -2.51344 39956 ft 458 kts 313°
2026-05-09 08:26 37.13425 -2.56414 39956 ft 458 kts 314°
2026-05-09 08:26 37.18365 -2.61447 39960 ft 458 kts 313°
2026-05-09 08:27 37.23327 -2.66547 39958 ft 459 kts 313°
2026-05-09 08:27 37.25831 -2.69135 39766 ft 463 kts 313°
2026-05-09 08:27 37.28360 -2.71754 39211 ft 468 kts 313°
2026-05-09 08:28 37.30854 -2.74331 38638 ft 464 kts 312°
2026-05-09 08:28 37.33336 -2.76897 38087 ft 462 kts 313°
2026-05-09 08:28 37.35832 -2.79483 37416 ft 463 kts 313°
2026-05-09 08:28 37.38295 -2.82039 36826 ft 463 kts 313°
2026-05-09 08:29 37.40797 -2.84637 36183 ft 463 kts 313°
2026-05-09 08:29 37.43267 -2.87192 35596 ft 464 kts 314°
2026-05-09 08:29 37.45752 -2.89757 34964 ft 468 kts 314°
2026-05-09 08:29 37.48291 -2.92381 34341 ft 471 kts 314°
2026-05-09 08:30 37.50825 -2.95003 33684 ft 474 kts 315°
2026-05-09 08:30 37.53354 -2.97620 33088 ft 478 kts 315°
2026-05-09 08:30 37.55928 -3.00287 32453 ft 482 kts 316°
2026-05-09 08:30 37.58516 -3.02971 31817 ft 486 kts 316°
2026-05-09 08:31 37.61129 -3.05686 31181 ft 489 kts 317°
2026-05-09 08:31 37.63783 -3.08445 30510 ft 493 kts 317°
2026-05-09 08:31 37.66397 -3.11165 29854 ft 493 kts 317°
2026-05-09 08:31 37.69053 -3.13930 29202 ft 491 kts 317°
2026-05-09 08:32 37.71692 -3.16680 28553 ft 487 kts 318°
2026-05-09 08:32 37.74283 -3.19382 27906 ft 482 kts 317°
2026-05-09 08:32 37.79398 -3.24720 26614 ft 472 kts 317°
2026-05-09 08:33 37.81901 -3.27338 26023 ft 466 kts 317°
2026-05-09 08:33 37.84400 -3.29953 25374 ft 462 kts 318°
2026-05-09 08:33 37.86859 -3.32529 24771 ft 456 kts 317°
2026-05-09 08:33 37.89270 -3.35058 24181 ft 452 kts 317°
2026-05-09 08:34 37.91687 -3.37595 23590 ft 448 kts 317°
2026-05-09 08:34 37.94080 -3.40109 23001 ft 444 kts 317°
2026-05-09 08:34 37.96413 -3.42561 22407 ft 439 kts 317°
2026-05-09 08:34 37.98767 -3.45037 21827 ft 434 kts 316°
2026-05-09 08:35 38.01076 -3.47469 21271 ft 430 kts 316°
2026-05-09 08:35 38.03331 -3.49845 20685 ft 426 kts 316°
2026-05-09 08:35 38.05621 -3.52261 20127 ft 421 kts 315°
2026-05-09 08:35 38.07857 -3.54621 19561 ft 417 kts 315°
2026-05-09 08:36 38.10061 -3.56949 19022 ft 412 kts 314°
2026-05-09 08:36 38.12273 -3.59288 18455 ft 407 kts 314°
2026-05-09 08:36 38.14561 -3.61377 17942 ft 409 kts 325°
2026-05-09 08:36 38.17173 -3.62734 17389 ft 414 kts 341°
2026-05-09 08:37 38.20023 -3.63380 16813 ft 413 kts 348°
2026-05-09 08:37 38.22834 -3.63895 16281 ft 407 kts 348°
2026-05-09 08:37 38.25610 -3.64412 15749 ft 403 kts 347°
2026-05-09 08:37 38.28388 -3.64931 15212 ft 398 kts 348°
2026-05-09 08:38 38.31105 -3.65439 14685 ft 393 kts 347°
2026-05-09 08:38 38.33815 -3.65945 14147 ft 387 kts 347°
2026-05-09 08:38 38.36440 -3.66436 13658 ft 378 kts 347°
2026-05-09 08:38 38.39021 -3.66920 13149 ft 369 kts 347°
2026-05-09 08:39 38.41534 -3.67390 12676 ft 359 kts 347°
2026-05-09 08:39 38.43997 -3.67853 12197 ft 351 kts 347°
2026-05-09 08:39 38.46389 -3.68303 11736 ft 344 kts 348°
2026-05-09 08:39 38.48727 -3.68744 11286 ft 337 kts 348°
2026-05-09 08:40 38.51029 -3.69179 10840 ft 331 kts 348°
2026-05-09 08:40 38.53303 -3.69608 10400 ft 325 kts 348°
2026-05-09 08:40 38.55547 -3.70033 9965 ft 320 kts 348°
2026-05-09 08:40 38.57733 -3.70447 9548 ft 315 kts 349°
2026-05-09 08:41 38.59870 -3.70852 9136 ft 311 kts 349°
2026-05-09 08:41 38.62002 -3.71256 8723 ft 306 kts 349°
2026-05-09 08:41 38.64105 -3.71655 8314 ft 302 kts 349°
2026-05-09 08:41 38.66152 -3.72044 7919 ft 298 kts 349°
2026-05-09 08:42 38.68204 -3.72434 7527 ft 294 kts 349°
2026-05-09 08:42 38.70206 -3.72815 7140 ft 291 kts 350°
2026-05-09 08:42 38.72208 -3.73195 6761 ft 287 kts 350°
2026-05-09 08:42 38.74155 -3.73566 6505 ft 287 kts 350°
2026-05-09 08:43 38.76167 -3.73950 6057 ft 290 kts 350°
2026-05-09 08:43 38.78162 -3.74329 5690 ft 286 kts 350°
2026-05-09 08:43 38.80119 -3.74702 5305 ft 282 kts 350°
2026-05-09 08:43 38.81986 -3.75316 4903 ft 277 kts 334°
2026-05-09 08:44 38.83519 -3.76694 4657 ft 261 kts 308°
2026-05-09 08:44 38.84271 -3.78665 4527 ft 233 kts 276°
2026-05-09 08:44 38.84392 -3.80564 4615 ft 201 kts 270°
2026-05-09 08:44 38.84502 -3.82280 4473 ft 185 kts 271°
2026-05-09 08:45 38.84610 -3.83901 4184 ft 180 kts 270°
2026-05-09 08:45 38.84679 -3.85460 3894 ft 175 kts 269°
2026-05-09 08:45 38.84713 -3.86971 3738 ft 160 kts 266°
2026-05-09 08:45 38.84782 -3.88324 3569 ft 141 kts 272°
2026-05-09 08:46 38.84905 -3.89571 3241 ft 139 kts 272°
2026-05-09 08:46 38.84992 -3.90775 2928 ft 132 kts 267°
2026-05-09 08:46 38.84997 -3.91978 2701 ft 133 kts 265°
2026-05-09 08:46 38.85037 -3.93153 2608 ft 134 kts 274°
2026-05-09 08:47 38.85198 -3.94318 2424 ft 132 kts 277°
2026-05-09 08:47 38.85392 -3.95495 2228 ft 135 kts 279°
2026-05-09 08:47 38.85589 -3.96635 2085 ft 120 kts 280°
2026-05-09 08:47 38.85749 -3.97570 2076 ft 97 kts 283°
2026-05-09 08:48 38.85885 -3.98342 2057 ft 83 kts 282°
2026-05-09 08:48 38.85978 -3.98876 2048 ft 38 kts 283°
2026-05-09 08:48 38.86019 -3.99105 2047 ft 19 kts 283°
2026-05-09 08:48 38.86057 -3.99223 2045 ft 12 kts 333°
2026-05-09 08:49 38.86143 -3.99239 2045 ft 6 kts 351°
2026-05-09 08:49 38.86206 -3.99248 2044 ft 11 kts 359°
2026-05-09 08:49 38.86286 -3.99243 2043 ft 10 kts 339°
2026-05-09 08:49 38.86322 -3.99322 2043 ft 11 kts 282°
2026-05-09 08:50 38.86338 -3.99412 2044 ft 8 kts 297°
2026-05-09 08:50 38.86393 -3.99431 2044 ft 9 kts 11°
2026-05-09 08:50 38.86433 -3.99400 2043 ft 3 kts 102°
2026-05-09 08:50 38.86433 -3.99397 2043 ft 0 kts 105°